Date String (YYYY-MM-DD hh:mm:ss) UTC,Instrument flags,absolute air pressure of the measurement (hPa),sample flow rate (lpm),inlet stack bypass flow (lpm),air temperature of the measurement (°C),ambient temperature measured by the external sensor (°C),aerosol sample conditioner tube jacket temperature (°C),OPC LED temperature (°C),internal box temperature (°C),relative humidity of the measurement (%),span deviation,mass concentration of particles derived from Lorenz-Mie calculation of OPC scattering (μg/m³),mass concentration of particles derived from Lorenz-Mie calculation of OPC scattering (μg/m³),mass concentration of particles derived from Lorenz-Mie calculation of OPC scattering (μg/m³)
DateTimeUTC,F1_M11,P_M11,Q1_M11,Q2_M11,T1_M11,T2_M11,T3_M11,T4_M11,T5_M11,U1_M11,ZSPAN_M11,X2_M11,X0_M11,X1_M11
2023-07-25 09:00:00,SystemResetWarning,0833.9,4.99,000.00,029.3,026.1,000.0,037.6,030.8,28.1,0000.0,0006.28,0013.49,0005.25
2023-07-25 09:01:00,SystemResetWarning,0833.9,5.01,000.00,029.2,025.4,000.0,037.5,030.6,28.2,0000.0,0006.31,0013.38,0005.24
2023-07-25 09:02:00,SystemResetWarning,0833.9,5.01,000.00,029.1,025.5,000.0,037.5,030.4,28.5,0000.0,0006.35,0013.26,0005.24
2023-07-25 09:03:00,SystemResetWarning,0833.9,5.00,000.00,029.1,025.9,000.0,037.5,030.4,28.6,0000.0,0006.32,0013.55,0005.24
2023-07-25 09:04:00,SystemResetWarning,0833.9,5.00,000.00,029.1,026.3,000.0,037.5,030.5,28.6,0000.0,0006.29,0014.35,0005.23
2023-07-25 09:05:00,SystemResetWarning,0834.0,5.00,000.00,029.1,026.7,000.0,037.6,030.6,28.7,0000.0,0006.24,0014.50,0005.22
2023-07-25 09:06:00,SystemResetWarning,0833.9,5.00,000.00,029.1,027.0,000.0,037.6,030.7,28.8,0000.0,0006.30,0014.71,0005.22
2023-07-25 09:07:00,SystemResetWarning,0834.0,4.99,000.00,029.1,027.3,000.0,037.6,030.8,28.8,0000.0,0006.30,0015.30,0005.23
2023-07-25 09:08:00,SystemResetWarning,0834.0,5.01,000.00,029.2,027.5,000.0,037.6,030.8,28.8,0000.0,0006.25,0014.77,0005.21
2023-07-25 09:09:00,SystemResetWarning,0834.0,4.99,000.00,029.2,027.7,000.0,037.6,030.9,28.8,0000.0,0006.22,0014.35,0005.21
2023-07-25 09:10:00,SystemResetWarning,0834.0,4.99,000.00,029.2,027.9,000.0,037.6,030.9,28.9,0000.0,0006.17,0014.05,0005.21
2023-07-25 09:11:00,SystemResetWarning,0834.1,4.99,000.00,029.3,028.0,000.0,037.6,030.9,28.9,0000.0,0006.11,0013.69,0005.22
2023-07-25 09:12:00,SystemResetWarning,0834.1,5.00,000.00,029.3,028.1,000.0,037.7,031.0,28.8,0000.0,0006.09,0014.10,0005.22
2023-07-25 09:13:00,SystemResetWarning,0834.1,5.01,000.00,029.3,028.2,000.0,037.7,031.0,28.8,0000.0,0006.07,0014.50,0005.23
2023-07-25 09:14:00,SystemResetWarning,0834.1,5.01,000.00,029.4,028.2,000.0,037.7,031.1,28.5,0000.0,0006.07,0014.17,0005.23
2023-07-25 09:15:00,SystemResetWarning,0834.1,4.98,000.00,029.4,026.9,000.0,037.6,030.9,28.6,0000.0,0006.09,0013.35,0005.23
2023-07-25 09:16:00,SystemResetWarning,0834.1,5.01,000.00,029.3,025.5,000.0,037.5,030.7,28.6,0000.0,0006.10,0012.93,0005.24
2023-07-25 09:17:00,SystemResetWarning,0834.0,5.01,000.00,029.2,025.4,000.0,037.5,030.5,28.6,0000.0,0006.10,0012.79,0005.26
2023-07-25 09:18:00,SystemResetWarning,0834.0,5.00,000.00,029.1,025.7,000.0,037.5,030.4,28.8,0000.0,0006.08,0012.72,0005.26
2023-07-25 09:19:00,SystemResetWarning,0834.0,4.98,000.00,029.1,026.1,000.0,037.6,030.5,28.8,0000.0,0006.04,0012.77,0005.26
2023-07-25 09:20:00,SystemResetWarning,0834.1,5.00,000.00,029.1,026.5,000.0,037.6,030.6,28.8,0000.0,0006.07,0014.38,0005.28
2023-07-25 09:21:00,SystemResetWarning,0834.0,5.01,000.00,029.1,026.8,000.0,037.6,030.6,28.9,0000.0,0006.08,0014.28,0005.29
2023-07-25 09:22:00,SystemResetWarning,0834.0,5.01,000.00,029.1,027.1,000.0,037.6,030.7,28.9,0000.0,0006.10,0014.75,0005.30
2023-07-25 09:23:00,SystemResetWarning,0834.0,4.99,000.00,029.1,027.3,000.0,037.6,030.8,29.0,0000.0,0006.17,0015.18,0005.31
2023-07-25 09:24:00,SystemResetWarning,0834.1,5.00,000.00,029.2,027.5,000.0,037.6,030.8,28.8,0000.0,0006.25,0015.32,0005.32
2023-07-25 09:25:00,SystemResetWarning,0834.1,5.01,000.00,029.2,027.7,000.0,037.6,030.9,28.6,0000.0,0006.30,0015.78,0005.33
2023-07-25 09:26:00,SystemResetWarning,0834.1,5.01,000.00,029.2,027.9,000.0,037.6,030.9,28.7,0000.0,0006.32,0015.84,0005.35
2023-07-25 09:27:00,SystemResetWarning,0834.1,5.00,000.00,029.3,028.0,000.0,037.6,030.9,28.5,0000.0,0006.35,0016.08,0005.36
2023-07-25 09:28:00,SystemResetWarning,0834.1,4.99,000.00,029.3,028.1,000.0,037.7,031.0,28.4,0000.0,0006.34,0016.17,0005.34
2023-07-25 09:29:00,SystemResetWarning,0834.1,4.99,000.00,029.3,028.2,000.0,037.7,031.0,28.4,0000.0,0006.36,0015.42,0005.34
2023-07-25 09:30:00,SystemResetWarning,0834.0,5.00,000.00,029.3,028.2,000.0,037.7,031.1,28.4,0000.0,0006.43,0016.05,0005.35
2023-07-25 09:31:00,SystemResetWarning,0834.1,4.99,000.00,029.4,028.3,000.0,037.7,031.1,28.5,0000.0,0006.45,0015.07,0005.35
2023-07-25 09:32:00,SystemResetWarning,0834.1,4.99,000.00,029.4,026.9,000.0,037.7,031.0,28.2,0000.0,0006.43,0014.62,0005.35
2023-07-25 09:33:00,SystemResetWarning,0834.1,5.00,000.00,029.3,025.5,000.0,037.6,030.7,28.0,0000.0,0006.44,0014.32,0005.36
2023-07-25 09:34:00,SystemResetWarning,0834.0,5.01,000.00,029.2,025.3,000.0,037.5,030.4,27.9,0000.0,0006.46,0014.12,0005.35
2023-07-25 09:35:00,SystemResetWarning,0834.0,5.01,000.00,029.1,025.6,000.0,037.5,030.4,27.9,0000.0,0006.39,0014.01,0005.35
2023-07-25 09:36:00,SystemResetWarning,0834.0,5.00,000.00,029.1,026.0,000.0,037.6,030.4,28.0,0000.0,0006.37,0013.86,0005.35
2023-07-25 09:37:00,SystemResetWarning,0834.0,5.00,000.00,029.1,026.4,000.0,037.6,030.5,28.4,0000.0,0006.39,0013.77,0005.34
2023-07-25 09:38:00,SystemResetWarning,0834.0,5.00,000.00,029.1,026.7,000.0,037.6,030.6,28.3,0000.0,0006.37,0013.64,0005.33
2023-07-25 09:39:00,SystemResetWarning,0834.0,4.99,000.00,029.1,027.0,000.0,037.6,030.7,28.2,0000.0,0006.35,0013.59,0005.34
2023-07-25 09:40:00,SystemResetWarning,0834.1,4.99,000.00,029.1,027.3,000.0,037.6,030.7,28.2,0000.0,0006.35,0013.58,0005.34
2023-07-25 09:41:00,SystemResetWarning,0834.0,4.99,000.00,029.2,027.5,000.0,037.6,030.8,28.2,0000.0,0006.30,0013.36,0005.33
2023-07-25 09:42:00,SystemResetWarning,0834.0,5.00,000.00,029.2,027.7,000.0,037.6,030.8,28.6,0000.0,0006.33,0012.57,0005.34
2023-07-25 09:43:00,SystemResetWarning,0834.0,5.01,000.00,029.2,027.8,000.0,037.6,030.9,27.8,0000.0,0006.34,0012.45,0005.33
2023-07-25 09:44:00,SystemResetWarning,0834.1,5.00,000.00,029.2,027.9,000.0,037.7,030.9,27.5,0000.0,0006.33,0013.00,0005.34
2023-07-25 09:45:00,SystemResetWarning,0834.1,5.01,000.00,029.3,028.1,000.0,037.7,031.0,27.0,0000.0,0006.28,0013.21,0005.34
2023-07-25 09:46:00,SystemResetWarning,0834.1,4.99,000.00,029.3,028.1,000.0,037.7,031.0,26.8,0000.0,0006.26,0012.89,0005.33
2023-07-25 09:47:00,SystemResetWarning,0834.1,4.99,000.00,029.3,028.2,000.0,037.7,031.0,27.0,0000.0,0006.21,0012.76,0005.33
2023-07-25 09:48:00,SystemResetWarning,0834.1,4.99,000.00,029.4,028.3,000.0,037.7,031.1,27.2,0000.0,0006.20,0012.81,0005.32
2023-07-25 09:49:00,SystemResetWarning,0834.1,5.00,000.00,029.4,027.0,000.0,037.7,031.0,27.3,0000.0,0006.19,0012.83,0005.33
2023-07-25 09:50:00,SystemResetWarning,0834.1,5.00,000.00,029.3,025.5,000.0,037.6,030.7,27.0,0000.0,0006.20,0012.84,0005.34
2023-07-25 09:51:00,SystemResetWarning,0834.1,5.02,000.00,029.2,025.3,000.0,037.5,030.6,27.0,0000.0,0006.14,0012.60,0005.33
2023-07-25 09:52:00,SystemResetWarning,0834.1,5.00,000.00,029.2,025.6,000.0,037.6,030.5,26.7,0000.0,0006.12,0013.06,0005.33
2023-07-25 09:53:00,SystemResetWarning,0834.1,4.99,000.00,029.1,026.0,000.0,037.6,030.5,26.6,0000.0,0006.05,0012.81,0005.33
2023-07-25 09:54:00,SystemResetWarning,0834.1,4.99,000.00,029.1,026.4,000.0,037.6,030.6,26.3,0000.0,0006.04,0012.96,0005.33
2023-07-25 09:55:00,SystemResetWarning,0834.1,5.00,000.00,029.1,026.7,000.0,037.6,030.6,26.6,0000.0,0006.06,0012.76,0005.32
2023-07-25 09:56:00,SystemResetWarning,0834.1,5.01,000.00,029.1,027.0,000.0,037.6,030.7,26.8,0000.0,0006.05,0012.41,0005.31
2023-07-25 09:57:00,SystemResetWarning,0834.1,5.01,000.00,029.1,027.3,000.0,037.6,030.7,27.0,0000.0,0006.04,0012.25,0005.31
2023-07-25 09:58:00,SystemResetWarning,0834.1,5.00,000.00,029.2,027.5,000.0,037.6,030.8,26.7,0000.0,0006.08,0011.93,0005.31
2023-07-25 09:59:00,SystemResetWarning,0834.1,5.00,000.00,029.2,027.6,000.0,037.6,030.8,26.5,0000.0,0006.08,0011.86,0005.31
